Time,TemperatureF,DewpointF,PressureIn,WindDirection,WindDirectionDegrees,WindSpeedMPH,WindSpeedGustMPH,Humidity,HourlyPrecipIn,Conditions,Clouds,dailyrainin,SoftwareType,DateUTC
2013-03-26 00:00:00,34.3,32.3,29.57,ESE,107,0.0,0.0,92,0.00,,OVC046,0.04,VWS V13.00,2013-03-26 04:00:00,
2013-03-26 00:05:00,34.3,32.3,29.57,ESE,107,0.0,0.0,92,0.00,,OVC046,0.00,VWS V13.00,2013-03-26 04:05:00,
2013-03-26 00:10:00,34.2,32.3,29.57,ESE,107,0.0,0.0,93,0.00,,OVC046,0.00,VWS V13.00,2013-03-26 04:10:00,
2013-03-26 00:15:00,34.2,32.3,29.57,ESE,107,0.0,0.0,93,0.00,,OVC046,0.00,VWS V13.00,2013-03-26 04:15:00,
2013-03-26 00:21:00,34.0,32.2,29.57,ESE,107,0.0,0.0,93,0.00,,OVC046,0.00,VWS V13.00,2013-03-26 04:21:00,
2013-03-26 00:26:00,33.8,32.0,29.57,ESE,107,0.0,0.0,93,0.00,,OVC046,0.00,VWS V13.00,2013-03-26 04:26:00,
2013-03-26 00:31:00,33.8,32.0,29.57,ESE,107,0.0,0.0,93,0.00,,OVC046,0.00,VWS V13.00,2013-03-26 04:31:00,
2013-03-26 00:36:00,33.8,32.0,29.57,West,263,0.0,2.7,93,0.00,,-RA,0.00,VWS V13.00,2013-03-26 04:36:00,
2013-03-26 00:41:00,33.8,32.0,29.57,West,263,0.0,0.0,93,0.00,,-RA,0.00,VWS V13.00,2013-03-26 04:41:00,
2013-03-26 00:47:00,33.6,32.1,29.57,West,263,0.0,0.0,94,0.00,,-RA,0.00,VWS V13.00,2013-03-26 04:47:00,
2013-03-26 00:52:00,33.6,32.1,29.57,West,263,0.0,0.0,94,0.00,,-RA,0.00,VWS V13.00,2013-03-26 04:52:00,
2013-03-26 00:57:00,33.6,32.1,29.57,West,263,0.0,0.0,94,0.00,,-RA,0.00,VWS V13.00,2013-03-26 04:57:00,
2013-03-26 01:02:00,33.6,32.3,29.57,West,263,0.0,0.0,95,0.00,,-RA,0.00,VWS V13.00,2013-03-26 05:02:00,
2013-03-26 01:07:00,33.6,32.3,29.57,West,263,0.0,0.0,95,0.00,,-RA,0.00,VWS V13.00,2013-03-26 05:07:00,
2013-03-26 01:12:00,33.6,32.3,29.57,West,263,0.0,0.0,95,0.00,,-RA,0.00,VWS V13.00,2013-03-26 05:12:00,
2013-03-26 01:17:00,33.6,32.3,29.57,West,263,0.0,0.0,95,0.00,,-RA,0.00,VWS V13.00,2013-03-26 05:17:00,
2013-03-26 01:22:00,33.6,32.3,29.57,West,263,0.0,0.0,95,0.00,,-RA,0.00,VWS V13.00,2013-03-26 05:22:00,
2013-03-26 01:27:00,33.6,32.3,29.57,West,263,0.0,0.0,95,0.00,,-RA,0.00,VWS V13.00,2013-03-26 05:27:00,
2013-03-26 01:32:00,33.6,32.3,29.57,West,263,0.0,0.0,95,0.00,,OVC075,0.00,VWS V13.00,2013-03-26 05:32:00,
2013-03-26 01:37:00,33.4,32.2,29.57,West,263,0.0,0.0,95,0.00,,OVC075,0.00,VWS V13.00,2013-03-26 05:37:00,
2013-03-26 01:42:00,33.4,32.2,29.57,West,263,0.0,0.0,95,0.00,,OVC075,0.00,VWS V13.00,2013-03-26 05:42:00,
2013-03-26 01:47:00,33.4,32.2,29.57,West,263,0.0,0.0,95,0.00,,OVC075,0.00,VWS V13.00,2013-03-26 05:47:00,
2013-03-26 01:52:00,33.3,32.0,29.57,West,263,0.0,0.0,95,0.00,,OVC075,0.00,VWS V13.00,2013-03-26 05:52:00,
2013-03-26 01:57:00,33.3,32.2,29.57,West,263,0.0,0.0,96,0.00,,OVC075,0.00,VWS V13.00,2013-03-26 05:57:00,
2013-03-26 02:02:00,33.3,32.2,29.57,West,263,0.0,0.0,96,0.00,,OVC075,0.00,VWS V13.00,2013-03-26 06:02:00,
2013-03-26 02:07:00,33.3,32.2,29.57,West,263,0.0,0.0,96,0.00,,OVC075,0.00,VWS V13.00,2013-03-26 06:07:00,
2013-03-26 02:12:00,33.1,32.1,29.60,West,263,0.0,0.0,96,0.00,,OVC075,0.00,VWS V13.00,2013-03-26 06:12:00,
2013-03-26 02:17:00,33.1,32.1,29.60,SW,217,0.0,3.6,96,0.00,,OVC075,0.00,VWS V13.00,2013-03-26 06:17:00,
2013-03-26 02:22:00,33.1,32.1,29.60,SW,216,0.0,0.0,96,0.00,,OVC075,0.00,VWS V13.00,2013-03-26 06:22:00,
2013-03-26 02:28:00,33.1,32.1,29.60,SW,217,0.0,0.0,96,0.00,,OVC075,0.00,VWS V13.00,2013-03-26 06:28:00,
2013-03-26 02:33:00,33.1,32.1,29.60,SW,217,0.0,0.0,96,0.00,,OVC090,0.00,VWS V13.00,2013-03-26 06:33:00,
2013-03-26 02:38:00,33.1,32.1,29.60,SW,216,0.0,0.0,96,0.00,,OVC090,0.00,VWS V13.00,2013-03-26 06:38:00,
2013-03-26 02:43:00,32.9,31.9,29.60,SW,217,0.0,0.0,96,0.00,,OVC090,0.00,VWS V13.00,2013-03-26 06:43:00,
2013-03-26 02:48:00,32.9,31.9,29.60,SW,216,0.0,0.0,96,0.00,,OVC090,0.00,VWS V13.00,2013-03-26 06:48:00,
2013-03-26 02:53:00,32.9,31.9,29.60,SW,217,0.0,0.0,96,0.00,,OVC090,0.00,VWS V13.00,2013-03-26 06:53:00,
2013-03-26 02:58:00,32.9,32.1,29.60,SW,217,0.0,0.0,97,0.00,,OVC090,0.00,VWS V13.00,2013-03-26 06:58:00,
2013-03-26 03:03:00,32.7,32.0,29.60,SW,217,0.0,0.0,97,0.00,,OVC090,0.00,VWS V13.00,2013-03-26 07:03:00,
2013-03-26 03:08:00,32.7,32.0,29.60,SW,216,0.0,0.0,97,0.00,,OVC090,0.00,VWS V13.00,2013-03-26 07:08:00,
2013-03-26 03:13:00,32.7,32.0,29.60,SW,217,0.0,2.2,97,0.00,,OVC090,0.00,VWS V13.00,2013-03-26 07:13:00,
2013-03-26 03:18:00,32.7,32.0,29.60,SW,216,0.0,2.2,97,0.00,,OVC090,0.00,VWS V13.00,2013-03-26 07:18:00,
2013-03-26 03:23:00,32.7,32.0,29.60,SW,216,0.0,0.0,97,0.00,,OVC090,0.00,VWS V13.00,2013-03-26 07:23:00,
2013-03-26 03:28:00,32.7,32.0,29.57,SW,217,0.0,2.2,97,0.00,,OVC090,0.00,VWS V13.00,2013-03-26 07:28:00,
2013-03-26 03:33:00,32.7,32.0,29.57,SW,216,0.0,2.2,97,0.00,,OVC046,0.00,VWS V13.00,2013-03-26 07:33:00,
2013-03-26 03:38:00,32.7,32.0,29.57,SW,216,0.0,2.2,97,0.00,,OVC046,0.00,VWS V13.00,2013-03-26 07:38:00,
2013-03-26 03:43:00,32.5,31.8,29.60,SW,216,0.0,0.0,97,0.00,,OVC046,0.00,VWS V13.00,2013-03-26 07:43:00,
2013-03-26 03:48:00,32.5,31.8,29.60,SW,217,0.0,0.0,97,0.00,,OVC046,0.00,VWS V13.00,2013-03-26 07:48:00,
2013-03-26 03:53:00,32.4,31.6,29.60,SW,217,0.0,0.0,97,0.00,,OVC046,0.00,VWS V13.00,2013-03-26 07:53:00,
2013-03-26 03:59:00,32.4,31.6,29.60,SW,216,0.0,0.0,97,0.00,,OVC046,0.00,VWS V13.00,2013-03-26 07:59:00,
2013-03-26 04:04:00,32.4,31.6,29.60,SW,217,0.0,0.0,97,0.00,,OVC046,0.00,VWS V13.00,2013-03-26 08:04:00,
2013-03-26 04:09:00,32.4,31.6,29.60,SW,216,0.0,0.0,97,0.00,,OVC046,0.00,VWS V13.00,2013-03-26 08:09:00,
2013-03-26 04:14:00,32.4,31.6,29.60,SW,217,0.0,0.0,97,0.00,,OVC046,0.00,VWS V13.00,2013-03-26 08:14:00,
2013-03-26 04:19:00,32.4,31.6,29.60,SW,217,0.0,0.0,97,0.00,,OVC046,0.00,VWS V13.00,2013-03-26 08:19:00,
2013-03-26 04:24:00,32.4,31.6,29.60,SW,216,0.0,0.0,97,0.00,,OVC046,0.00,VWS V13.00,2013-03-26 08:24:00,
2013-03-26 04:29:00,32.4,31.9,29.60,WSW,251,2.7,3.1,98,0.00,,OVC046,0.00,VWS V13.00,2013-03-26 08:29:00,
2013-03-26 04:34:00,32.4,31.9,29.60,WSW,251,0.0,3.1,98,0.00,,OVC090,0.00,VWS V13.00,2013-03-26 08:34:00,
2013-03-26 04:39:00,32.4,31.9,29.60,WSW,251,0.0,3.1,98,0.00,,OVC090,0.00,VWS V13.00,2013-03-26 08:39:00,
2013-03-26 04:44:00,32.4,31.9,29.60,WSW,251,0.0,0.0,98,0.00,,OVC090,0.00,VWS V13.00,2013-03-26 08:44:00,
2013-03-26 04:49:00,32.4,31.9,29.60,WSW,251,0.0,0.0,98,0.00,,OVC090,0.00,VWS V13.00,2013-03-26 08:49:00,
2013-03-26 04:54:00,32.4,31.9,29.60,WSW,251,0.0,0.0,98,0.00,,OVC090,0.00,VWS V13.00,2013-03-26 08:54:00,
2013-03-26 04:59:00,32.4,31.9,29.63,WSW,251,0.0,0.0,98,0.00,,OVC090,0.00,VWS V13.00,2013-03-26 08:59:00,
2013-03-26 05:04:00,32.2,31.7,29.63,WSW,251,0.0,0.0,98,0.00,,OVC090,0.00,VWS V13.00,2013-03-26 09:04:00,
2013-03-26 05:09:00,32.2,31.7,29.63,WSW,251,2.7,3.1,98,0.00,,OVC090,0.00,VWS V13.00,2013-03-26 09:09:00,
2013-03-26 05:14:00,32.2,31.7,29.63,WSW,251,0.0,3.1,98,0.00,,OVC090,0.00,VWS V13.00,2013-03-26 09:14:00,
2013-03-26 05:19:00,32.2,31.7,29.63,WSW,251,0.0,3.1,98,0.00,,OVC090,0.00,VWS V13.00,2013-03-26 09:19:00,
2013-03-26 05:24:00,32.2,31.7,29.63,WSW,251,0.0,2.2,98,0.00,,OVC090,0.00,VWS V13.00,2013-03-26 09:24:00,
2013-03-26 05:29:00,32.2,31.7,29.63,WSW,251,2.2,3.1,98,0.00,,OVC090,0.00,VWS V13.00,2013-03-26 09:29:00,
2013-03-26 05:34:00,32.2,31.7,29.63,WSW,251,2.7,3.6,98,0.00,,OVC090,0.00,VWS V13.00,2013-03-26 09:34:00,
2013-03-26 05:39:00,32.2,31.7,29.63,SW,222,2.7,3.6,98,0.00,,OVC090,0.00,VWS V13.00,2013-03-26 09:39:00,
2013-03-26 05:45:00,32.2,31.7,29.63,SW,222,0.0,0.0,98,0.00,,OVC090,0.00,VWS V13.00,2013-03-26 09:45:00,
2013-03-26 05:50:00,32.2,31.7,29.63,SW,222,0.0,0.0,98,0.00,,OVC090,0.00,VWS V13.00,2013-03-26 09:50:00,
2013-03-26 05:55:00,32.2,31.7,29.63,SW,222,0.0,0.0,98,0.00,,OVC090,0.00,VWS V13.00,2013-03-26 09:55:00,
2013-03-26 06:00:00,32.2,31.7,29.63,SW,222,0.0,0.0,98,0.00,,OVC090,0.00,VWS V13.00,2013-03-26 10:00:00,
2013-03-26 06:05:00,32.2,31.7,29.63,SW,222,0.0,0.0,98,0.00,,OVC090,0.00,VWS V13.00,2013-03-26 10:05:00,
2013-03-26 06:10:00,32.2,31.7,29.63,SW,222,0.0,0.0,98,0.00,,OVC090,0.00,VWS V13.00,2013-03-26 10:10:00,
2013-03-26 06:15:00,32.2,31.7,29.63,WSW,249,0.0,3.1,98,0.00,,OVC090,0.00,VWS V13.00,2013-03-26 10:15:00,
2013-03-26 06:20:00,32.2,31.7,29.63,WSW,249,0.0,3.1,98,0.00,,OVC090,0.00,VWS V13.00,2013-03-26 10:20:00,
2013-03-26 06:25:00,32.2,31.7,29.63,SW,228,0.0,4.0,98,0.00,,OVC090,0.00,VWS V13.00,2013-03-26 10:25:00,
2013-03-26 06:30:00,32.2,31.7,29.63,SW,228,0.0,4.0,98,0.00,,OVC090,0.00,VWS V13.00,2013-03-26 10:30:00,
2013-03-26 06:35:00,32.2,31.7,29.63,SW,228,0.0,4.0,98,0.00,,OVC090,0.00,VWS V13.00,2013-03-26 10:35:00,
2013-03-26 06:40:00,32.2,31.7,29.63,SW,228,0.0,4.0,98,0.00,,OVC090,0.00,VWS V13.00,2013-03-26 10:40:00,
2013-03-26 06:45:00,32.2,31.7,29.66,SW,228,0.0,2.7,98,0.00,,OVC090,0.00,VWS V13.00,2013-03-26 10:45:00,
2013-03-26 06:50:00,32.2,31.7,29.66,SW,228,0.0,2.7,98,0.00,,OVC090,0.00,VWS V13.00,2013-03-26 10:50:00,
2013-03-26 06:55:00,32.2,31.7,29.66,WSW,241,4.0,4.0,98,0.00,,OVC090,0.00,VWS V13.00,2013-03-26 10:55:00,
2013-03-26 07:00:00,32.2,31.7,29.66,WSW,241,0.0,0.0,98,0.00,,OVC090,0.00,VWS V13.00,2013-03-26 11:00:00,
2013-03-26 07:05:00,32.4,31.9,29.66,WSW,247,0.0,4.5,98,0.00,,OVC090,0.00,VWS V13.00,2013-03-26 11:05:00,
2013-03-26 07:10:00,32.4,31.9,29.66,WSW,247,0.0,4.5,98,0.00,,OVC090,0.00,VWS V13.00,2013-03-26 11:10:00,
2013-03-26 07:15:00,32.4,31.9,29.66,WSW,247,0.0,4.5,98,0.00,,OVC090,0.00,VWS V13.00,2013-03-26 11:15:00,
2013-03-26 07:21:00,32.4,31.9,29.66,WSW,247,0.0,0.0,98,0.00,,OVC090,0.00,VWS V13.00,2013-03-26 11:21:00,
2013-03-26 07:26:00,32.4,31.9,29.66,WSW,247,0.0,0.0,98,0.00,,OVC090,0.00,VWS V13.00,2013-03-26 11:26:00,
2013-03-26 07:31:00,32.5,32.0,29.66,WSW,247,0.0,2.7,98,0.00,,OVC090,0.00,VWS V13.00,2013-03-26 11:31:00,
2013-03-26 07:36:00,32.5,32.0,29.66,WSW,247,0.0,2.7,98,0.00,,OVC090,0.00,VWS V13.00,2013-03-26 11:36:00,
2013-03-26 07:41:00,32.7,32.2,29.66,WSW,247,0.0,0.0,98,0.00,,OVC090,0.00,VWS V13.00,2013-03-26 11:41:00,
2013-03-26 07:46:00,32.9,32.4,29.66,WSW,247,0.0,0.0,98,0.00,,OVC090,0.00,VWS V13.00,2013-03-26 11:46:00,
2013-03-26 07:52:00,33.1,32.6,29.66,WSW,247,0.0,0.0,98,0.00,,OVC090,0.00,VWS V13.00,2013-03-26 11:52:00,
2013-03-26 07:57:00,33.1,32.6,29.69,WSW,247,0.0,0.0,98,0.00,,OVC090,0.00,VWS V13.00,2013-03-26 11:57:00,
2013-03-26 08:02:00,33.3,32.8,29.69,WSW,247,0.0,0.0,98,0.00,,OVC090,0.00,VWS V13.00,2013-03-26 12:02:00,
2013-03-26 08:07:00,33.4,32.9,29.69,WSW,247,0.0,0.0,98,0.00,,OVC090,0.00,VWS V13.00,2013-03-26 12:07:00,
2013-03-26 08:12:00,33.6,33.1,29.69,WSW,247,4.0,4.0,98,0.00,,OVC090,0.00,VWS V13.00,2013-03-26 12:12:00,
2013-03-26 08:17:00,33.8,33.3,29.69,WSW,247,0.0,4.0,98,0.00,,OVC090,0.00,VWS V13.00,2013-03-26 12:17:00,
2013-03-26 08:22:00,34.0,33.5,29.69,WNW,289,0.0,3.6,98,0.00,,OVC090,0.00,VWS V13.00,2013-03-26 12:22:00,
2013-03-26 08:27:00,34.3,33.8,29.69,WSW,239,0.0,3.6,98,0.00,,OVC090,0.00,VWS V13.00,2013-03-26 12:27:00,
2013-03-26 08:32:00,34.5,34.0,29.69,WSW,254,0.0,4.9,98,0.00,,OVC090,0.00,VWS V13.00,2013-03-26 12:32:00,
2013-03-26 08:37:00,34.9,34.4,29.69,WSW,254,0.0,4.9,98,0.00,,OVC090,0.00,VWS V13.00,2013-03-26 12:37:00,
2013-03-26 08:42:00,35.1,34.5,29.69,WSW,256,0.0,0.0,98,0.00,,OVC090,0.00,VWS V13.00,2013-03-26 12:42:00,
2013-03-26 08:47:00,35.4,34.9,29.69,WSW,238,0.0,3.6,98,0.00,,OVC090,0.00,VWS V13.00,2013-03-26 12:47:00,
2013-03-26 08:53:00,35.6,35.1,29.69,SW,223,0.0,3.6,98,0.00,,OVC090,0.00,VWS V13.00,2013-03-26 12:53:00,
2013-03-26 08:58:00,35.8,35.3,29.69,SW,223,0.0,3.6,98,0.00,,OVC090,0.00,VWS V13.00,2013-03-26 12:58:00,
2013-03-26 09:03:00,36.1,35.4,29.69,NW,326,0.0,5.4,97,0.00,,OVC090,0.00,VWS V13.00,2013-03-26 13:03:00,
2013-03-26 09:08:00,36.5,35.7,29.69,South,191,0.0,7.6,97,0.00,,OVC090,0.00,VWS V13.00,2013-03-26 13:08:00,
2013-03-26 09:13:00,36.9,36.1,29.69,North,357,3.1,7.6,97,0.00,,OVC090,0.00,VWS V13.00,2013-03-26 13:13:00,
2013-03-26 09:18:00,37.2,36.5,29.69,West,261,0.0,7.6,97,0.00,,OVC090,0.00,VWS V13.00,2013-03-26 13:18:00,
2013-03-26 09:23:00,37.6,36.5,29.69,NNW,331,0.0,0.0,96,0.00,,OVC090,0.00,VWS V13.00,2013-03-26 13:23:00,
2013-03-26 09:28:00,37.8,36.5,29.69,North,11,0.0,2.7,95,0.00,,OVC090,0.00,VWS V13.00,2013-03-26 13:28:00,
2013-03-26 09:33:00,38.1,36.8,29.69,SW,224,2.2,3.6,95,0.00,,OVC090,0.00,VWS V13.00,2013-03-26 13:33:00,
2013-03-26 09:38:00,38.5,36.9,29.69,SW,224,0.0,4.0,94,0.00,,OVC090,0.00,VWS V13.00,2013-03-26 13:38:00,
2013-03-26 09:43:00,38.7,36.8,29.69,NE,39,2.7,3.1,93,0.00,,OVC090,0.00,VWS V13.00,2013-03-26 13:43:00,
2013-03-26 09:48:00,39.4,37.2,29.69,SW,225,0.0,4.9,92,0.00,,OVC090,0.00,VWS V13.00,2013-03-26 13:48:00,
2013-03-26 09:53:00,39.9,37.5,29.69,SW,236,5.4,5.4,91,0.00,,OVC090,0.00,VWS V13.00,2013-03-26 13:53:00,
2013-03-26 09:58:00,40.1,37.4,29.69,SW,225,0.0,6.3,90,0.00,,OVC090,0.00,VWS V13.00,2013-03-26 13:58:00,
2013-03-26 10:03:00,40.6,37.4,29.69,West,263,3.1,5.8,88,0.00,,OVC090,0.00,VWS V13.00,2013-03-26 14:03:00,
2013-03-26 10:08:00,40.8,37.5,29.69,WNW,300,5.4,5.8,88,0.00,,OVC090,0.00,VWS V13.00,2013-03-26 14:08:00,
2013-03-26 10:13:00,42.3,38.7,29.69,SW,227,4.9,5.8,87,0.00,,OVC090,0.00,VWS V13.00,2013-03-26 14:13:00,
2013-03-26 10:18:00,42.4,38.6,29.69,East,100,2.7,5.8,86,0.00,,OVC090,0.00,VWS V13.00,2013-03-26 14:18:00,
2013-03-26 10:23:00,42.4,38.3,29.69,North,357,3.1,5.4,85,0.00,,OVC090,0.00,VWS V13.00,2013-03-26 14:23:00,
2013-03-26 10:28:00,43.5,39.0,29.69,South,170,2.2,5.4,84,0.00,,OVC090,0.00,VWS V13.00,2013-03-26 14:28:00,
2013-03-26 10:33:00,43.5,38.7,29.69,ENE,57,2.2,5.4,83,0.00,,BKN100,0.00,VWS V13.00,2013-03-26 14:33:00,
2013-03-26 10:38:00,44.2,39.1,29.69,NW,318,0.0,5.8,82,0.00,,BKN100,0.00,VWS V13.00,2013-03-26 14:38:00,
2013-03-26 10:43:00,44.6,38.8,29.69,SE,126,2.7,3.6,80,0.00,,BKN100,0.00,VWS V13.00,2013-03-26 14:43:00,
2013-03-26 10:48:00,45.1,38.7,29.69,NE,45,4.0,5.8,78,0.00,,BKN100,0.00,VWS V13.00,2013-03-26 14:48:00,
2013-03-26 10:53:00,45.3,38.2,29.69,WSW,253,5.8,5.8,76,0.00,,BKN100,0.00,VWS V13.00,2013-03-26 14:53:00,
2013-03-26 10:58:00,45.7,38.2,29.69,West,266,3.1,5.8,75,0.00,,BKN100,0.00,VWS V13.00,2013-03-26 14:58:00,
2013-03-26 11:04:00,46.4,38.6,29.69,ENE,73,0.0,6.3,74,0.00,,BKN100,0.00,VWS V13.00,2013-03-26 15:04:00,
2013-03-26 11:09:00,46.8,38.9,29.69,NE,49,4.0,6.7,74,0.00,,BKN100,0.00,VWS V13.00,2013-03-26 15:09:00,
2013-03-26 11:14:00,46.8,37.9,29.72,ENE,58,0.0,6.7,71,0.00,,BKN100,0.00,VWS V13.00,2013-03-26 15:14:00,
2013-03-26 11:19:00,47.3,38.4,29.72,NW,310,0.0,6.7,71,0.00,,BKN100,0.00,VWS V13.00,2013-03-26 15:19:00,
2013-03-26 11:24:00,47.1,37.5,29.72,North,353,5.4,7.6,69,0.00,,BKN100,0.00,VWS V13.00,2013-03-26 15:24:00,
2013-03-26 11:29:00,48.0,39.1,29.69,SW,219,0.0,7.6,71,0.00,,BKN100,0.00,VWS V13.00,2013-03-26 15:29:00,
2013-03-26 11:34:00,47.8,39.3,29.69,WNW,294,4.0,7.6,72,0.00,,-RA,0.00,VWS V13.00,2013-03-26 15:34:00,
2013-03-26 11:39:00,47.8,39.6,29.69,East,79,2.7,7.6,73,0.00,,-RA,0.00,VWS V13.00,2013-03-26 15:39:00,
2013-03-26 11:44:00,47.8,39.3,29.72,North,353,2.2,4.0,72,0.00,,-RA,0.00,VWS V13.00,2013-03-26 15:44:00,
2013-03-26 11:49:00,47.8,38.5,29.72,NNE,18,3.1,8.1,70,0.00,,-RA,0.00,VWS V13.00,2013-03-26 15:49:00,
2013-03-26 11:54:00,46.9,37.7,29.72,NNW,338,2.7,8.1,70,0.00,,-RA,0.00,VWS V13.00,2013-03-26 15:54:00,
2013-03-26 11:59:00,47.5,38.6,29.72,North,3,0.0,8.1,71,0.00,,-RA,0.00,VWS V13.00,2013-03-26 15:59:00,
2013-03-26 12:04:00,46.8,38.2,29.72,NNE,12,3.1,3.6,72,0.00,,-RA,0.00,VWS V13.00,2013-03-26 16:04:00,
2013-03-26 12:09:00,48.6,39.6,29.72,North,8,3.1,5.4,71,0.00,,-RA,0.00,VWS V13.00,2013-03-26 16:09:00,
2013-03-26 12:14:00,49.3,40.3,29.69,SW,226,5.4,5.4,71,0.00,,-RA,0.00,VWS V13.00,2013-03-26 16:14:00,
2013-03-26 12:19:00,49.5,39.3,29.69,NNW,330,2.7,8.7,68,0.00,,-RA,0.00,VWS V13.00,2013-03-26 16:19:00,
2013-03-26 12:24:00,48.0,39.1,29.69,South,180,2.7,4.0,71,0.00,,-RA,0.00,VWS V13.00,2013-03-26 16:24:00,
2013-03-26 12:30:00,46.9,37.7,29.69,WSW,246,2.2,6.3,70,0.00,,-RA,0.00,VWS V13.00,2013-03-26 16:30:00,
2013-03-26 12:35:00,48.6,39.6,29.69,North,0,0.0,6.3,71,0.00,,-RA,0.00,VWS V13.00,2013-03-26 16:35:00,
2013-03-26 12:40:00,50.5,40.8,29.69,North,353,3.6,6.3,69,0.00,,-RA,0.00,VWS V13.00,2013-03-26 16:40:00,
2013-03-26 12:45:00,49.5,38.2,29.69,NE,47,2.2,5.4,65,0.00,,-RA,0.00,VWS V13.00,2013-03-26 16:45:00,
2013-03-26 12:50:00,48.9,38.5,29.69,SSE,165,0.0,7.6,67,0.00,,-RA,0.00,VWS V13.00,2013-03-26 16:50:00,
2013-03-26 12:55:00,48.6,36.2,29.69,NE,40,0.0,7.6,62,0.00,,-RA,0.00,VWS V13.00,2013-03-26 16:55:00,
2013-03-26 13:00:00,49.1,38.6,29.69,NNE,29,2.7,10.1,67,0.00,,-RA,0.00,VWS V13.00,2013-03-26 17:00:00,
2013-03-26 13:05:00,48.4,37.6,29.69,NNE,33,4.0,5.4,66,0.00,,-RA,0.00,VWS V13.00,2013-03-26 17:05:00,
2013-03-26 13:10:00,49.3,38.8,29.69,North,1,3.6,5.8,67,0.00,,-RA,0.00,VWS V13.00,2013-03-26 17:10:00,
2013-03-26 13:15:00,50.4,33.4,29.69,ESE,106,4.0,6.3,52,0.00,,-RA,0.00,VWS V13.00,2013-03-26 17:15:00,
2013-03-26 13:20:00,49.1,29.2,29.69,North,1,4.0,6.3,46,0.00,,-RA,0.00,VWS V13.00,2013-03-26 17:20:00,
2013-03-26 13:25:00,49.3,27.8,29.69,North,357,2.2,5.8,43,0.00,,-RA,0.00,VWS V13.00,2013-03-26 17:25:00,
2013-03-26 13:30:00,51.3,28.4,29.72,North,7,3.6,5.8,41,0.00,,-RA,0.00,VWS V13.00,2013-03-26 17:30:00,
2013-03-26 13:35:00,52.9,28.0,29.72,East,80,5.4,5.8,38,0.00,,BKN100,0.00,VWS V13.00,2013-03-26 17:35:00,
2013-03-26 13:40:00,52.3,27.5,29.72,West,261,8.7,10.1,38,0.00,,BKN100,0.00,VWS V13.00,2013-03-26 17:40:00,
2013-03-26 13:45:00,51.3,26.5,29.69,NE,43,3.1,5.4,38,0.00,,BKN100,0.00,VWS V13.00,2013-03-26 17:45:00,
2013-03-26 13:50:00,50.7,25.4,29.69,NE,56,4.0,8.1,37,0.00,,BKN100,0.00,VWS V13.00,2013-03-26 17:50:00,
2013-03-26 13:55:00,51.1,26.4,29.69,NNW,332,2.2,8.1,38,0.00,,BKN100,0.00,VWS V13.00,2013-03-26 17:55:00,
2013-03-26 14:00:00,50.5,25.2,29.69,NNE,31,2.2,8.1,37,0.00,,BKN100,0.00,VWS V13.00,2013-03-26 18:00:00,
2013-03-26 14:05:00,50.2,24.9,29.69,WNW,287,4.0,5.4,37,0.00,,BKN100,0.00,VWS V13.00,2013-03-26 18:05:00,
2013-03-26 14:10:00,50.2,25.6,29.69,NNE,26,0.0,5.4,38,0.00,,BKN100,0.00,VWS V13.00,2013-03-26 18:10:00,
2013-03-26 14:15:00,50.4,25.7,29.69,ESE,105,0.0,5.8,38,0.00,,BKN100,0.00,VWS V13.00,2013-03-26 18:15:00,
2013-03-26 14:20:00,49.5,24.9,29.69,WNW,294,2.7,2.7,38,0.00,,BKN100,0.00,VWS V13.00,2013-03-26 18:20:00,
2013-03-26 14:25:00,48.7,24.3,29.69,WSW,237,3.1,5.8,38,0.00,,BKN100,0.00,VWS V13.00,2013-03-26 18:25:00,
2013-03-26 14:30:00,48.0,23.6,29.69,NNE,17,2.2,5.8,38,0.00,,BKN100,0.00,VWS V13.00,2013-03-26 18:30:00,
2013-03-26 14:35:00,47.7,23.3,29.69,East,80,2.7,5.8,38,0.00,,SCT080,0.00,VWS V13.00,2013-03-26 18:35:00,
2013-03-26 14:40:00,47.5,23.2,29.69,WSW,256,0.0,5.8,38,0.00,,SCT080,0.00,VWS V13.00,2013-03-26 18:40:00,
2013-03-26 14:45:00,47.8,24.1,29.69,ENE,63,0.0,3.6,39,0.00,,SCT080,0.00,VWS V13.00,2013-03-26 18:45:00,
2013-03-26 14:50:00,48.6,24.1,29.69,WSW,239,0.0,4.0,38,0.00,,SCT080,0.00,VWS V13.00,2013-03-26 18:50:00,
2013-03-26 14:55:00,49.5,24.9,29.69,NE,55,4.0,4.0,38,0.00,,SCT080,0.00,VWS V13.00,2013-03-26 18:55:00,
2013-03-26 15:00:00,49.6,25.1,29.69,WSW,252,0.0,0.0,38,0.00,,SCT080,0.00,VWS V13.00,2013-03-26 19:00:00,
2013-03-26 15:05:00,49.8,24.6,29.69,ESE,122,3.6,5.8,37,0.00,,SCT080,0.00,VWS V13.00,2013-03-26 19:05:00,
2013-03-26 15:10:00,49.1,24.0,29.69,North,0,3.1,5.8,37,0.00,,SCT080,0.00,VWS V13.00,2013-03-26 19:10:00,
2013-03-26 15:15:00,50.2,24.9,29.69,NE,41,4.0,5.8,37,0.00,,SCT080,0.00,VWS V13.00,2013-03-26 19:15:00,
2013-03-26 15:20:00,50.2,24.3,29.69,NW,324,4.0,4.0,36,0.00,,SCT080,0.00,VWS V13.00,2013-03-26 19:20:00,
2013-03-26 15:26:00,48.9,23.8,29.69,North,0,4.0,4.9,37,0.00,,SCT080,0.00,VWS V13.00,2013-03-26 19:26:00,
2013-03-26 15:31:00,48.6,23.5,29.69,WNW,284,0.0,4.9,37,0.00,,SCT080,0.00,VWS V13.00,2013-03-26 19:31:00,
2013-03-26 15:36:00,48.7,23.6,29.69,NW,325,4.0,4.9,37,0.00,,OVC090,0.00,VWS V13.00,2013-03-26 19:36:00,
2013-03-26 15:41:00,49.1,24.0,29.72,NNE,20,4.0,4.0,37,0.00,,OVC090,0.00,VWS V13.00,2013-03-26 19:41:00,
2013-03-26 15:47:00,48.4,23.3,29.72,NNE,17,3.6,4.9,37,0.00,,OVC090,0.00,VWS V13.00,2013-03-26 19:47:00,
2013-03-26 15:52:00,48.2,23.2,29.72,ENE,57,2.2,4.9,37,0.00,,OVC090,0.00,VWS V13.00,2013-03-26 19:52:00,
2013-03-26 15:57:00,48.2,23.2,29.72,ESE,119,2.2,4.9,37,0.00,,OVC090,0.00,VWS V13.00,2013-03-26 19:57:00,
2013-03-26 16:02:00,49.1,24.0,29.72,North,353,3.6,8.1,37,0.00,,OVC090,0.00,VWS V13.00,2013-03-26 20:02:00,
2013-03-26 16:07:00,50.2,24.9,29.72,West,275,6.3,8.1,37,0.00,,OVC090,0.00,VWS V13.00,2013-03-26 20:07:00,
2013-03-26 16:12:00,50.5,25.2,29.72,West,269,2.7,8.1,37,0.00,,OVC090,0.00,VWS V13.00,2013-03-26 20:12:00,
2013-03-26 16:17:00,49.5,24.3,29.72,NE,35,4.0,8.1,37,0.00,,OVC090,0.00,VWS V13.00,2013-03-26 20:17:00,
2013-03-26 16:22:00,48.7,23.6,29.72,ENE,59,0.0,5.4,37,0.00,,OVC090,0.00,VWS V13.00,2013-03-26 20:22:00,
2013-03-26 16:27:00,49.1,24.0,29.72,West,279,3.1,10.1,37,0.00,,OVC090,0.00,VWS V13.00,2013-03-26 20:27:00,
2013-03-26 16:32:00,48.9,23.8,29.72,NW,307,2.7,10.1,37,0.00,,OVC090,0.00,VWS V13.00,2013-03-26 20:32:00,
2013-03-26 16:37:00,49.6,24.5,29.72,NNW,334,2.7,12.3,37,0.00,,OVC090,0.00,VWS V13.00,2013-03-26 20:37:00,
2013-03-26 16:43:00,49.8,24.6,29.72,NW,308,3.1,10.1,37,0.00,,OVC090,0.00,VWS V13.00,2013-03-26 20:43:00,
2013-03-26 16:48:00,50.4,25.1,29.72,North,1,2.2,11.0,37,0.00,,OVC090,0.00,VWS V13.00,2013-03-26 20:48:00,
2013-03-26 16:53:00,50.5,25.2,29.72,NNW,341,3.1,11.0,37,0.00,,-RA,0.00,VWS V13.00,2013-03-26 20:53:00,
2013-03-26 16:58:00,50.9,25.6,29.72,NE,39,4.0,11.0,37,0.00,,-RA,0.00,VWS V13.00,2013-03-26 20:58:00,
2013-03-26 17:03:00,49.6,24.5,29.72,NNE,16,5.4,6.3,37,0.00,,-RA,0.00,VWS V13.00,2013-03-26 21:03:00,
2013-03-26 17:08:00,48.6,23.5,29.72,SSE,164,3.6,6.3,37,0.00,,-RA,0.00,VWS V13.00,2013-03-26 21:08:00,
2013-03-26 17:13:00,47.5,23.2,29.72,NNE,29,4.0,6.3,38,0.00,,-RA,0.00,VWS V13.00,2013-03-26 21:13:00,
2013-03-26 17:18:00,46.9,22.7,29.72,NE,37,3.6,6.3,38,0.00,,-RA,0.00,VWS V13.00,2013-03-26 21:18:00,
2013-03-26 17:23:00,46.9,22.7,29.72,ESE,116,0.0,5.4,38,0.00,,-RA,0.00,VWS V13.00,2013-03-26 21:23:00,
2013-03-26 17:28:00,46.4,22.2,29.72,NE,42,4.0,5.4,38,0.00,,-RA,0.00,VWS V13.00,2013-03-26 21:28:00,
2013-03-26 17:33:00,46.2,22.0,29.72,NNE,30,2.7,5.8,38,0.00,,-RA,0.00,VWS V13.00,2013-03-26 21:33:00,
2013-03-26 17:38:00,46.2,22.0,29.72,North,357,0.0,5.8,38,0.00,,-RA,0.00,VWS V13.00,2013-03-26 21:38:00,
2013-03-26 17:43:00,46.0,21.9,29.72,ESE,104,3.1,5.4,38,0.00,,-RA,0.00,VWS V13.00,2013-03-26 21:43:00,
2013-03-26 17:48:00,45.9,21.7,29.72,West,266,2.7,5.4,38,0.00,,-RA,0.00,VWS V13.00,2013-03-26 21:48:00,
2013-03-26 17:53:00,45.7,21.5,29.72,North,2,0.0,5.4,38,0.00,,-RA,0.00,VWS V13.00,2013-03-26 21:53:00,
2013-03-26 17:58:00,45.7,21.5,29.72,WSW,245,2.7,6.3,38,0.00,,-RA,0.00,VWS V13.00,2013-03-26 21:58:00,
2013-03-26 18:03:00,46.0,21.9,29.72,North,1,0.0,3.1,38,0.00,,-RA,0.00,VWS V13.00,2013-03-26 22:03:00,
2013-03-26 18:09:00,46.0,21.9,29.72,WSW,238,3.1,3.1,38,0.00,,-RA,0.00,VWS V13.00,2013-03-26 22:09:00,
2013-03-26 18:14:00,45.9,21.7,29.72,WSW,238,0.0,4.0,38,0.00,,-RA,0.00,VWS V13.00,2013-03-26 22:14:00,
2013-03-26 18:19:00,45.5,21.4,29.72,SW,235,2.2,7.6,38,0.00,,-RA,0.00,VWS V13.00,2013-03-26 22:19:00,
2013-03-26 18:24:00,45.5,21.4,29.72,West,273,2.2,4.0,38,0.00,,-RA,0.00,VWS V13.00,2013-03-26 22:24:00,
2013-03-26 18:29:00,45.3,21.2,29.75,NNE,17,2.7,5.8,38,0.00,,-RA,0.00,VWS V13.00,2013-03-26 22:29:00,
2013-03-26 18:34:00,45.1,21.1,29.75,SW,236,2.7,8.1,38,0.00,,SCT090,0.00,VWS V13.00,2013-03-26 22:34:00,
2013-03-26 18:39:00,45.1,21.1,29.75,SW,214,0.0,8.1,38,0.00,,SCT090,0.00,VWS V13.00,2013-03-26 22:39:00,
2013-03-26 18:44:00,44.8,20.7,29.75,WNW,301,0.0,5.4,38,0.00,,SCT090,0.00,VWS V13.00,2013-03-26 22:44:00,
2013-03-26 18:49:00,44.6,20.6,29.75,NNW,329,3.1,6.7,38,0.00,,SCT090,0.00,VWS V13.00,2013-03-26 22:49:00,
2013-03-26 18:54:00,44.4,20.4,29.75,North,11,2.2,7.6,38,0.00,,SCT090,0.00,VWS V13.00,2013-03-26 22:54:00,
2013-03-26 18:59:00,44.2,20.9,29.75,NE,45,3.6,8.7,39,0.00,,SCT090,0.00,VWS V13.00,2013-03-26 22:59:00,
2013-03-26 19:04:00,43.9,20.5,29.75,NNE,25,0.0,3.1,39,0.00,,SCT090,0.00,VWS V13.00,2013-03-26 23:04:00,
2013-03-26 19:09:00,43.7,20.4,29.75,South,182,0.0,3.1,39,0.00,,SCT090,0.00,VWS V13.00,2013-03-26 23:09:00,
2013-03-26 19:14:00,43.5,20.2,29.75,South,183,0.0,3.1,39,0.00,,SCT090,0.00,VWS V13.00,2013-03-26 23:14:00,
2013-03-26 19:19:00,43.3,20.1,29.75,NNE,32,0.0,4.5,39,0.00,,SCT090,0.00,VWS V13.00,2013-03-26 23:19:00,
2013-03-26 19:24:00,43.2,19.9,29.75,West,274,0.0,4.9,39,0.00,,SCT090,0.00,VWS V13.00,2013-03-26 23:24:00,
2013-03-26 19:29:00,42.8,20.2,29.78,ESE,112,0.0,4.9,40,0.00,,SCT090,0.00,VWS V13.00,2013-03-26 23:29:00,
2013-03-26 19:34:00,42.3,19.7,29.78,SW,230,0.0,4.9,40,0.00,,BKN085,0.00,VWS V13.00,2013-03-26 23:34:00,
2013-03-26 19:39:00,42.1,20.1,29.78,North,0,2.7,5.8,41,0.00,,BKN085,0.00,VWS V13.00,2013-03-26 23:39:00,
2013-03-26 19:44:00,41.7,19.8,29.78,WNW,289,3.6,3.6,41,0.00,,BKN085,0.00,VWS V13.00,2013-03-26 23:44:00,
2013-03-26 19:49:00,41.5,19.6,29.78,WSW,252,0.0,4.0,41,0.00,,BKN085,0.00,VWS V13.00,2013-03-26 23:49:00,
2013-03-26 19:54:00,41.0,19.7,29.78,East,88,0.0,4.0,42,0.00,,BKN085,0.00,VWS V13.00,2013-03-26 23:54:00,
2013-03-26 19:59:00,41.0,19.7,29.78,WNW,298,3.6,5.4,42,0.00,,BKN085,0.00,VWS V13.00,2013-03-26 23:59:00,
2013-03-26 20:04:00,40.6,19.9,29.78,WNW,298,0.0,0.0,43,0.00,,BKN085,0.00,VWS V13.00,2013-03-27 00:04:00,
2013-03-26 20:09:00,40.3,20.1,29.78,WSW,258,0.0,4.0,44,0.00,,SCT080,0.00,VWS V13.00,2013-03-27 00:09:00,
2013-03-26 20:14:00,40.1,20.0,29.78,West,268,0.0,4.0,44,0.00,,SCT080,0.00,VWS V13.00,2013-03-27 00:14:00,
2013-03-26 20:19:00,39.7,20.1,29.78,NW,319,3.1,4.0,45,0.00,,SCT080,0.00,VWS V13.00,2013-03-27 00:19:00,
2013-03-26 20:25:00,39.6,20.5,29.78,WNW,299,0.0,4.0,46,0.00,,SCT080,0.00,VWS V13.00,2013-03-27 00:25:00,
2013-03-26 20:30:00,39.4,20.8,29.78,SW,228,0.0,4.0,47,0.00,,SCT080,0.00,VWS V13.00,2013-03-27 00:30:00,
2013-03-26 20:35:00,39.2,21.2,29.78,WSW,238,0.0,4.0,48,0.00,,SCT080,0.00,VWS V13.00,2013-03-27 00:35:00,
2013-03-26 20:40:00,39.2,21.2,29.78,West,271,2.7,6.3,48,0.00,,SCT080,0.00,VWS V13.00,2013-03-27 00:40:00,
2013-03-26 20:45:00,38.8,21.3,29.78,West,261,2.7,4.0,49,0.00,,SCT080,0.00,VWS V13.00,2013-03-27 00:45:00,
2013-03-26 20:50:00,38.5,21.0,29.78,SW,236,0.0,4.0,49,0.00,,SCT080,0.00,VWS V13.00,2013-03-27 00:50:00,
2013-03-26 20:55:00,38.1,21.1,29.78,SW,236,0.0,4.0,50,0.00,,SCT080,0.00,VWS V13.00,2013-03-27 00:55:00,
2013-03-26 21:00:00,37.6,20.6,29.81,SW,236,0.0,4.0,50,0.00,,SCT080,0.00,VWS V13.00,2013-03-27 01:00:00,
2013-03-26 21:05:00,37.4,20.9,29.81,SW,236,0.0,0.0,51,0.00,,SCT080,0.00,VWS V13.00,2013-03-27 01:05:00,
2013-03-26 21:10:00,37.2,21.2,29.81,SW,236,2.7,2.7,52,0.00,,SCT080,0.00,VWS V13.00,2013-03-27 01:10:00,
2013-03-26 21:15:00,37.0,21.1,29.81,WSW,249,0.0,3.6,52,0.00,,SCT080,0.00,VWS V13.00,2013-03-27 01:15:00,
2013-03-26 21:20:00,36.9,21.3,29.81,WSW,249,0.0,3.6,53,0.00,,SCT080,0.00,VWS V13.00,2013-03-27 01:20:00,
2013-03-26 21:25:00,36.5,21.0,29.81,WSW,249,0.0,0.0,53,0.00,,SCT080,0.00,VWS V13.00,2013-03-27 01:25:00,
2013-03-26 21:30:00,36.3,20.8,29.81,WSW,249,0.0,0.0,53,0.00,,SCT080,0.00,VWS V13.00,2013-03-27 01:30:00,
2013-03-26 21:35:00,36.1,21.1,29.81,WSW,249,0.0,0.0,54,0.00,,FEW085,0.00,VWS V13.00,2013-03-27 01:35:00,
2013-03-26 21:40:00,35.8,20.8,29.81,WSW,249,0.0,0.0,54,0.00,,FEW085,0.00,VWS V13.00,2013-03-27 01:40:00,
2013-03-26 21:45:00,35.6,21.0,29.81,SW,225,0.0,3.1,55,0.00,,FEW085,0.00,VWS V13.00,2013-03-27 01:45:00,
2013-03-26 21:50:00,35.4,21.3,29.81,SW,221,0.0,3.6,56,0.00,,FEW085,0.00,VWS V13.00,2013-03-27 01:50:00,
2013-03-26 21:55:00,35.2,21.1,29.81,SW,224,2.2,3.6,56,0.00,,FEW085,0.00,VWS V13.00,2013-03-27 01:55:00,
2013-03-26 22:01:00,35.2,21.5,29.81,SW,224,2.7,2.7,57,0.00,,FEW085,0.00,VWS V13.00,2013-03-27 02:01:00,
2013-03-26 22:06:00,35.1,21.8,29.81,SW,236,0.0,4.0,58,0.00,,FEW085,0.00,VWS V13.00,2013-03-27 02:06:00,
2013-03-26 22:11:00,34.9,21.6,29.81,WSW,244,0.0,4.0,58,0.00,,FEW085,0.00,VWS V13.00,2013-03-27 02:11:00,
2013-03-26 22:16:00,34.9,22.0,29.81,WSW,244,0.0,4.0,59,0.00,,FEW085,0.00,VWS V13.00,2013-03-27 02:16:00,
2013-03-26 22:21:00,34.5,21.7,29.81,WSW,238,3.1,3.1,59,0.00,,FEW085,0.00,VWS V13.00,2013-03-27 02:21:00,
2013-03-26 22:26:00,34.5,22.1,29.81,WSW,238,0.0,3.1,60,0.00,,FEW085,0.00,VWS V13.00,2013-03-27 02:26:00,
2013-03-26 22:31:00,34.3,22.3,29.81,WSW,238,0.0,3.1,61,0.00,,FEW085,0.00,VWS V13.00,2013-03-27 02:31:00,
2013-03-26 22:36:00,34.2,22.5,29.81,WSW,238,0.0,3.1,62,0.00,,CLR,0.00,VWS V13.00,2013-03-27 02:36:00,
2013-03-26 22:41:00,33.8,22.2,29.84,WSW,238,0.0,2.7,62,0.00,,CLR,0.00,VWS V13.00,2013-03-27 02:41:00,
2013-03-26 22:46:00,33.8,22.5,29.84,WSW,238,0.0,2.7,63,0.00,,CLR,0.00,VWS V13.00,2013-03-27 02:46:00,
2013-03-26 22:51:00,33.6,22.8,29.84,WSW,238,0.0,3.1,64,0.00,,CLR,0.00,VWS V13.00,2013-03-27 02:51:00,
2013-03-26 22:57:00,33.6,23.1,29.84,SW,229,2.7,3.1,65,0.00,,CLR,0.00,VWS V13.00,2013-03-27 02:57:00,
2013-03-26 23:02:00,33.6,23.5,29.84,SW,229,0.0,0.0,66,0.00,,CLR,0.00,VWS V13.00,2013-03-27 03:02:00,
2013-03-26 23:07:00,33.3,23.1,29.84,SW,229,0.0,0.0,66,0.00,,CLR,0.00,VWS V13.00,2013-03-27 03:07:00,
2013-03-26 23:12:00,33.1,23.3,29.81,SW,229,0.0,0.0,67,0.00,,CLR,0.00,VWS V13.00,2013-03-27 03:12:00,
2013-03-26 23:17:00,33.1,23.3,29.81,SW,229,2.2,2.7,67,0.00,,CLR,0.00,VWS V13.00,2013-03-27 03:17:00,
2013-03-26 23:22:00,33.1,23.7,29.81,SW,229,2.2,2.7,68,0.00,,CLR,0.00,VWS V13.00,2013-03-27 03:22:00,
2013-03-26 23:27:00,32.9,23.9,29.81,SW,229,2.7,3.1,69,0.00,,CLR,0.00,VWS V13.00,2013-03-27 03:27:00,
2013-03-26 23:32:00,32.7,23.7,29.81,SW,229,0.0,3.1,69,0.00,,CLR,0.00,VWS V13.00,2013-03-27 03:32:00,
2013-03-26 23:37:00,32.7,23.7,29.81,SW,229,0.0,3.1,69,0.00,,CLR,0.00,VWS V13.00,2013-03-27 03:37:00,
2013-03-26 23:42:00,32.5,23.9,29.84,SW,229,2.7,3.6,70,0.00,,CLR,0.00,VWS V13.00,2013-03-27 03:42:00,
2013-03-26 23:47:00,32.5,23.9,29.84,WSW,248,2.7,3.6,70,0.00,,CLR,0.00,VWS V13.00,2013-03-27 03:47:00,
2013-03-26 23:52:00,32.5,24.2,29.84,SW,219,0.0,5.4,71,0.00,,CLR,0.00,VWS V13.00,2013-03-27 03:52:00,
2013-03-26 23:57:00,32.4,24.0,29.84,SW,219,0.0,5.4,71,0.00,,CLR,0.00,VWS V13.00,2013-03-27 03:57:00,